This is the latest recevied weather packets stored in our database for station/object N4JTC. If no packets are shown the sender has not sent any weather packets the latest 10 day(s).
| Time | Temp. | Humidity | Pressure | Rain* | Wind** | Luminosity | Snow |
|---|---|---|---|---|---|---|---|
| 1777668903 | 19.44° C | 92% | 1011 hPa | 3.05 mm | - | 62 W/m² | - |
| 1777668604 | 19.44° C | 92% | 1011.5 hPa | 3.05 mm | - | 25 W/m² | - |
| 1777668303 | 19.44° C | 92% | 1011.5 hPa | 4.32 mm | - | 25 W/m² | - |
| 1777667703 | 20° C | 92% | 1011.7 hPa | 6.1 mm | - | 16 W/m² | - |
| 1777667403 | 20.56° C | 92% | 1011.7 hPa | 4.32 mm | - | 24 W/m² | - |
| 1777667103 | 20.56° C | 92% | 1011.9 hPa | 4.83 mm | - | 14 W/m² | - |
| 1777666503 | 20.56° C | 91% | 1011.5 hPa | 3.05 mm | - | 62 W/m² | - |
| 1777666203 | 21.11° C | 91% | 1012 hPa | 4.83 mm | - | 44 W/m² | - |
| 1777665903 | 21.11° C | 90% | 1011.7 hPa | 10.67 mm | - | 51 W/m² | - |
| 1777665303 | 21.67° C | 87% | 1012.1 hPa | 7.87 mm | - | 30 W/m² | - |
| 1777665003 | 22.22° C | 87% | 1011.9 hPa | 4.83 mm | - | 34 W/m² | - |
| 1777664703 | 22.22° C | 85% | 1012.2 hPa | 3.05 mm | - | 34 W/m² | - |
| 1777664102 | 22.78° C | 84% | 1011.9 hPa | 0 mm | - | 37 W/m² | - |
| 1777663804 | 22.78° C | 84% | 1012.4 hPa | 0 mm | - | 34 W/m² | - |
| 1777663503 | 22.78° C | 84% | 1012.2 hPa | 0 mm | - | 60 W/m² | - |
| 1777662903 | 22.78° C | 84% | 1012.7 hPa | 0 mm | - | 108 W/m² | - |
| 1777662303 | 23.89° C | 82% | 1012.6 hPa | 0 mm | - | 62 W/m² | - |
| 1777662003 | 23.89° C | 81% | 1012.3 hPa | 0 mm | - | 73 W/m² | - |
| 1777661703 | 24.44° C | 80% | 1012.5 hPa | 0 mm | - | 42 W/m² | - |
| 1777661403 | 25° C | 79% | 1012.4 hPa | 0 mm | - | 57 W/m² | - |
| 1777661102 | 25.56° C | 75% | 1012.4 hPa | 0 mm | - | 142 W/m² | - |
| 1777660503 | 25.56° C | 75% | 1012.6 hPa | 0 mm | - | 226 W/m² | - |
| 1777660203 | 25.56° C | 74% | 1012.5 hPa | 0 mm | - | 206 W/m² | - |
| 1777659902 | 25.56° C | 75% | 1012.6 hPa | 0 mm | - | 158 W/m² | - |
| 1777659603 | 25° C | 75% | 1012.8 hPa | 0 mm | - | 121 W/m² | - |
* Rain latest hour (hover to see other rain measurements)
** Current wind speed in m/s (hover to see current wind gust speed)